Location: *
(35.2348°S, 91.3916°E)
Time: 01:54:56
(UTC+00:00)

USA 215 - Pass Details

Date: 23 October 2019
Orbit: 1101 x 1107 km, 123.0° (Epoch: 19 November)

Event Time Altitude Azimuth Distance (km) Brightness Sun altitude
Rises 13:05:04 0° 120° (ESE) 3,945 5.8 -10.4°
Reaches altitude 10° 13:08:22 10° 103° (ESE) 2,979 5.1 -11.0°
Maximum altitude 13:12:59 20° 58° (ENE) 2,304 4.3 -11.9°
Drops below altitude 10° 13:17:33 10° 13° (NNE) 2,955 5.2 -12.7°
Sets 13:20:47 0° 357° (N) 3,904 5.9 -13.3°
